Flag for South Africa Weather past 2 weeks in Port Elizabeth, South Africa

Now
77 °F

Sunny.


Feels Like: 79 °F
Forecast: 68 / 76 °F
Wind: 14 mph from Southwest

Location: Port Elizabeth Airport

Current Time: Jan 25, 2015 at 5:03:23 PM

Latest Report: Jan 25, 2015 at 4:00 PM


Visibility: 10 mi

Pressure: 29.83 "Hg

Humidity: 65%

Dew point: 64 °F

Location of Port ElizabethLocation

Historic Weather in Port Elizabeth — Graph

°F

Port Elizabeth temperature yesterday

Maximum temperature yesterday: 77 °F (at 11:00 AM)
Minimum temperature yesterday: 66 °F (at 6:01 AM)
Average temperature yesterday: 73 °F

Past Weeks' High & Low Weather Summary

 TemperatureHumidityPressure
High86 °F (Jan 12, 12:00 PM)94% (Jan 18, 11:00 PM)30.18 "Hg (Jan 18, 11:00 PM)
Low52 °F (Jan 20, 6:00 AM)50% (Jan 19, 1:00 PM)29.59 "Hg (Jan 15, 5:00 PM)
Average71 °F75%29.96 "Hg
* Reported Jan 10 4:00 PM — Jan 25 4:00 PM, Port Elizabeth, Weather by CustomWeather, © 2014

Note: Actual official high and low records may vary slightly from our data, if they occured in-between our weather recording intervals... More about our weather records

Advertising

Port Elizabeth weather history for previous 24 hours

 ConditionsComfort  
Time TempWeatherWind HumidityBarometerVisibility
4:00 PM
Jan 25
77 °FSunny.14 mph65%29.83 "Hg10 mi
3:00 PM81 °FSunny.12 mph62%29.83 "Hg10 mi
2:00 PM81 °FPassing clouds.16 mph54%29.83 "HgN/A
1:00 PM81 °FSunny.16 mph58%29.83 "Hg10 mi
12:01 PM81 °FSunny.20 mph62%29.83 "Hg10 mi
11:00 AM77 °FSunny.21 mph65%29.83 "Hg10 mi
10:00 AM77 °FPassing clouds.24 mph69%29.80 "HgN/A
9:00 AM73 °FPassing clouds.17 mph78%29.80 "HgN/A
8:00 AM75 °FScattered clouds.15 mph74%29.80 "HgN/A
7:00 AM75 °FSunny.17 mph69%29.77 "Hg10 mi
6:00 AM73 °FSunny.20 mph74%29.77 "Hg10 mi
5:00 AM73 °FSunny.15 mph74%29.74 "Hg10 mi
4:00 AM73 °FClear.14 mph78%29.74 "Hg10 mi
3:00 AM75 °FClear.14 mph74%29.74 "Hg10 mi
2:00 AM75 °FClear.17 mph74%29.71 "Hg10 mi
1:00 AM75 °FClear.17 mph74%29.71 "Hg10 mi
12:00 AM77 °FClear.7 mph74%29.71 "Hg10 mi
9:00 PM
Jan 24
73 °FPassing clouds.8 mph78%29.65 "HgN/A
8:00 PM73 °FClear.7 mph78%29.68 "Hg10 mi
7:00 PM73 °FPassing clouds.3 mph78%29.68 "HgN/A
6:00 PM75 °FSunny.13 mph78%29.65 "Hg10 mi
5:00 PM75 °FSunny.22 mph78%29.65 "Hg10 mi
Weather by CustomWeather, © 2014

See weather overviewHow to use our weather pages